| time (UTC) | temp F | wind direction | speed knots | gust knots | rain 1hr in | rain 24hr in | rain mn in | humidity % | barometer mb |
| 20260904090033 | 72 | 0 | 0.0 | 0.0 | 0.00 | 0.08 | 0.02 | 97 | 1011.8 |
| 20260904084532 | 72 | 0 | 0.0 | 0.0 | 0.00 | 0.23 | 0.02 | 97 | 1011.6 |
| 20260904083041 | 72 | 0 | 0.0 | 0.0 | 0.00 | 0.23 | 0.02 | 97 | 1011.6 |
| 20260904081532 | 72 | 0 | 0.0 | 0.0 | 0.00 | 0.23 | 0.02 | 97 | 1011.5 |
| 20260904080033 | 73 | 0 | 0.0 | 0.0 | 0.00 | 0.23 | 0.02 | 97 | 1011.7 |
| 20260904074536 | 73 | 0 | 0.0 | 0.0 | 0.00 | 0.25 | 0.02 | 97 | 1011.7 |
| 20260904073031 | 73 | 0 | 0.0 | 0.0 | 0.00 | 0.25 | 0.02 | 97 | 1011.4 |
| 20260904071535 | 73 | 0 | 0.0 | 0.0 | 0.00 | 0.25 | 0.02 | 97 | 1011.3 |
| 20260904070031 | 73 | 0 | 0.0 | 0.0 | 0.00 | 0.25 | 0.02 | 97 | 1011.0 |
| 20260904064534 | 73 | 0 | 0.0 | 0.0 | 0.00 | 0.34 | 0.02 | 97 | 1010.9 |
| 20260904063044 | 73 | 0 | 0.0 | 0.0 | 0.01 | 0.34 | 0.02 | 97 | 1011.1 |
| 20260904061536 | 73 | 0 | 0.0 | 0.0 | 0.02 | 0.34 | 0.02 | 97 | 1011.2 |
| 20260904060053 | 73 | 0 | 0.0 | 0.0 | 0.02 | 0.34 | 0.02 | 97 | 1011.8 |
| 20260904054533 | 73 | 0 | 0.0 | 0.0 | 0.02 | 0.61 | 0.02 | 97 | 1012.1 |
| 20260904053035 | 73 | 0 | 0.0 | 0.0 | 0.01 | 0.60 | 0.01 | 97 | 1012.3 |
| 20260904051532 | 73 | 0 | 0.0 | 0.0 | 0.00 | 0.58 | 0.00 | 97 | 1012.2 |
| 20260904050033 | 73 | 0 | 0.0 | 0.0 | 0.00 | 0.58 | 0.00 | 97 | 1012.2 |
| 20260904044543 | 73 | 0 | 0.0 | 0.0 | 0.00 | 0.58 | 0.00 | 97 | 1011.8 |
| 20260904043037 | 73 | 0 | 0.0 | 0.0 | 0.00 | 0.58 | 0.00 | 97 | 1011.7 |
| 20260904041536 | 72 | 0 | 0.0 | 0.0 | 0.00 | 0.58 | 0.00 | 96 | 1012.1 |
| 20260904040037 | 72 | 0 | 0.0 | 0.0 | 0.00 | 0.58 | 0.00 | 95 | 1012.2 |
| 20260904034536 | 72 | 0 | 0.0 | 0.0 | 0.00 | 0.60 | 0.58 | 95 | 1012.4 |
| 20260904033030 | 72 | 0 | 0.0 | 0.0 | 0.00 | 0.60 | 0.58 | 95 | 1012.8 |
| 20260904031533 | 73 | 0 | 0.0 | 0.0 | 0.00 | 0.60 | 0.58 | 95 | 1013.2 |
| 20260904030035 | 73 | 0 | 0.0 | 0.0 | 0.00 | 0.60 | 0.58 | 95 | 1012.9 |
| 20260904024536 | 73 | 0 | 0.0 | 0.0 | 0.00 | 0.60 | 0.58 | 94 | 1012.7 |
| 20260904023034 | 73 | 0 | 0.0 | 0.0 | 0.00 | 0.60 | 0.58 | 93 | 1012.8 |
| 20260904021533 | 73 | 0 | 0.0 | 0.0 | 0.00 | 0.60 | 0.58 | 93 | 1012.9 |
| 20260904020039 | 73 | 0 | 0.0 | 0.0 | 0.00 | 0.60 | 0.58 | 93 | 1013.3 |
| 20260904014539 | 74 | 0 | 0.0 | 0.0 | 0.00 | 0.60 | 0.58 | 92 | 1013.1 |
| 20260904013035 | 74 | 0 | 0.0 | 0.0 | 0.00 | 0.60 | 0.58 | 92 | 1013.5 |
| 20260904011538 | 74 | 0 | 0.0 | 0.9 | 0.00 | 0.60 | 0.58 | 92 | 1013.9 |
| 20260904010044 | 74 | 0 | 0.0 | 0.0 | 0.00 | 0.60 | 0.58 | 91 | 1013.5 |
| 20260904004541 | 74 | 0 | 0.0 | 0.0 | 0.00 | 0.60 | 0.58 | 91 | 1013.3 |
| 20260904003035 | 75 | 0 | 0.0 | 0.0 | 0.00 | 0.60 | 0.58 | 90 | 1013.1 |
| 20260904001533 | 75 | 0 | 0.0 | 0.0 | 0.00 | 0.60 | 0.58 | 89 | 1012.8 |
| 20260904000034 | 75 | 0 | 0.0 | 0.0 | 0.00 | 0.60 | 0.58 | 88 | 1012.7 |
| 20260903234541 | 76 | 0 | 0.0 | 0.0 | 0.00 | 0.60 | 0.58 | 87 | 1013.0 |
| 20260903233034 | 77 | 0 | 0.0 | 0.0 | 0.00 | 0.60 | 0.58 | 85 | 1013.0 |
| 20260903231534 | 78 | 0 | 0.0 | 0.0 | 0.01 | 0.60 | 0.58 | 85 | 1013.0 |
| 20260903230033 | 79 | 0 | 0.0 | 0.0 | 0.01 | 0.60 | 0.58 | 82 | 1012.6 |
| 20260903224532 | 80 | 0 | 0.0 | 0.0 | 0.01 | 0.61 | 0.58 | 81 | 1012.5 |
| 20260903223042 | 80 | 0 | 0.0 | 0.0 | 0.01 | 0.61 | 0.58 | 79 | 1012.5 |
| 20260903221533 | 81 | 0 | 0.0 | 0.0 | 0.00 | 0.60 | 0.58 | 79 | 1012.5 |
| 20260903220040 | 82 | 0 | 0.0 | 0.9 | 0.00 | 0.60 | 0.58 | 81 | 1012.3 |
| 20260903214535 | 83 | 0 | 0.0 | 1.7 | 0.00 | 0.60 | 0.58 | 77 | 1012.0 |
| 20260903213038 | 84 | 292 | 0.0 | 0.0 | 0.00 | 0.60 | 0.58 | 76 | 1012.1 |
| 20260903211602 | 84 | 0 | 0.0 | 1.7 | 0.00 | 0.60 | 0.58 | 74 | 1012.2 |
| 20260903210035 | 83 | 0 | 0.0 | 2.6 | 0.00 | 0.60 | 0.58 | 73 | 1012.2 |
| 20260903204533 | 83 | 0 | 0.0 | 0.0 | 0.00 | 0.60 | 0.58 | 77 | 1012.2 |
| 20260903203032 | 84 | 0 | 0.0 | 2.6 | 0.00 | 0.60 | 0.58 | 73 | 1012.4 |
| 20260903201534 | 85 | 0 | 0.0 | 3.5 | 0.00 | 0.60 | 0.58 | 68 | 1012.4 |
| 20260903200032 | 85 | 0 | 0.0 | 3.5 | 0.00 | 0.60 | 0.58 | 67 | 1012.5 |
| 20260903194534 | 85 | 0 | 0.0 | 3.5 | 0.00 | 0.60 | 0.58 | 67 | 1012.4 |
| 20260903193035 | 85 | 246 | 0.9 | 6.1 | 0.00 | 0.60 | 0.58 | 69 | 1012.6 |
| 20260903191532 | 85 | 0 | 0.0 | 5.2 | 0.00 | 0.60 | 0.58 | 68 | 1012.9 |
| 20260903190033 | 84 | 0 | 0.0 | 2.6 | 0.00 | 0.60 | 0.58 | 69 | 1013.1 |
| 20260903184531 | 84 | 264 | 0.9 | 5.2 | 0.00 | 0.60 | 0.58 | 71 | 1013.2 |
| 20260903183033 | 84 | 254 | 0.0 | 3.5 | 0.00 | 0.60 | 0.58 | 72 | 1013.2 |
| 20260903181534 | 83 | 0 | 0.0 | 3.5 | 0.00 | 0.60 | 0.58 | 71 | 1013.5 |
| 20260903180035 | 83 | 308 | 0.0 | 4.3 | 0.00 | 0.60 | 0.58 | 72 | 1013.8 |
| 20260903174552 | 82 | 0 | 0.9 | 3.5 | 0.00 | 0.60 | 0.58 | 73 | 1013.8 |
| 20260903173039 | 82 | 0 | 0.0 | 4.3 | 0.00 | 0.60 | 0.58 | 76 | 1014.0 |
| 20260903171535 | 81 | 0 | 0.9 | 3.5 | 0.00 | 0.60 | 0.58 | 79 | 1014.2 |
| 20260903170042 | 80 | 0 | 0.0 | 7.0 | 0.00 | 0.60 | 0.58 | 81 | 1014.2 |
| 20260903164538 | 79 | 0 | 0.0 | 2.6 | 0.00 | 0.60 | 0.58 | 84 | 1014.8 |
| 20260903163032 | 78 | 0 | 0.0 | 3.5 | 0.00 | 0.60 | 0.58 | 84 | 1014.9 |
| 20260903161531 | 78 | 0 | 0.0 | 0.9 | 0.00 | 0.60 | 0.58 | 86 | 1015.3 |
| 20260903160035 | 78 | 0 | 0.0 | 3.5 | 0.00 | 0.60 | 0.58 | 87 | 1015.4 |
| 20260903154535 | 77 | 0 | 0.0 | 3.5 | 0.00 | 0.60 | 0.58 | 86 | 1015.5 |
| 20260903153036 | 77 | 0 | 0.0 | 3.5 | 0.00 | 0.60 | 0.58 | 89 | 1015.8 |
| 20260903151542 | 77 | 234 | 0.0 | 2.6 | 0.00 | 0.60 | 0.58 | 90 | 1015.8 |
| 20260903150034 | 75 | 0 | 0.0 | 3.5 | 0.00 | 0.60 | 0.58 | 92 | 1015.6 |
| 20260903144534 | 74 | 0 | 0.0 | 2.6 | 0.00 | 0.60 | 0.58 | 94 | 1015.8 |
| 20260903143037 | 73 | 0 | 0.0 | 2.6 | 0.00 | 0.60 | 0.58 | 97 | 1016.0 |
| 20260903141535 | 72 | 0 | 0.0 | 2.6 | 0.00 | 0.60 | 0.58 | 97 | 1015.7 |
| 20260903140035 | 72 | 0 | 0.0 | 1.7 | 0.00 | 0.60 | 0.58 | 98 | 1015.6 |
| 20260903134532 | 71 | 0 | 0.0 | 0.9 | 0.00 | 0.60 | 0.58 | 98 | 1015.3 |
| 20260903133033 | 71 | 0 | 0.0 | 0.0 | 0.00 | 0.60 | 0.58 | 98 | 1015.5 |
| 20260903131537 | 71 | 0 | 0.0 | 0.0 | 0.00 | 0.60 | 0.58 | 98 | 1015.5 |
| 20260903130030 | 70 | 0 | 0.0 | 0.0 | 0.00 | 0.60 | 0.58 | 98 | 1015.9 |
| 20260903124539 | 70 | 0 | 0.0 | 0.0 | 0.00 | 0.60 | 0.58 | 98 | 1015.7 |
| 20260903123036 | 70 | 0 | 0.0 | 1.7 | 0.00 | 0.60 | 0.58 | 98 | 1015.6 |
| 20260903121530 | 69 | 0 | 0.0 | 1.7 | 0.00 | 0.60 | 0.58 | 98 | 1015.4 |
| 20260903120031 | 69 | 0 | 0.0 | 1.7 | 0.00 | 0.60 | 0.58 | 98 | 1015.2 |
| 20260903114534 | 69 | 0 | 0.0 | 1.7 | 0.00 | 0.60 | 0.58 | 98 | 1014.5 |
| 20260903113033 | 69 | 0 | 0.9 | 2.6 | 0.00 | 0.60 | 0.58 | 98 | 1015.5 |
| 20260903111555 | 69 | 0 | 0.0 | 2.6 | 0.00 | 0.60 | 0.58 | 98 | 1015.7 |
| 20260903110036 | 69 | 0 | 0.0 | 2.6 | 0.00 | 0.60 | 0.58 | 98 | 1016.1 |
| 20260903104547 | 69 | 0 | 0.0 | 0.0 | 0.00 | 0.61 | 0.58 | 98 | 1016.2 |
| 20260903103032 | 69 | 220 | 0.0 | 2.6 | 0.01 | 0.61 | 0.58 | 98 | 1016.1 |
| 20260903101539 | 69 | 0 | 0.0 | 0.0 | 0.02 | 0.61 | 0.58 | 98 | 1015.9 |
| 20260903100036 | 68 | 0 | 0.0 | 0.9 | 0.05 | 0.61 | 0.58 | 98 | 1016.1 |
| 20260903094532 | 68 | 0 | 0.0 | 0.9 | 0.08 | 0.61 | 0.58 | 98 | 1015.4 |
| 20260903093039 | 68 | 0 | 0.0 | 2.6 | 0.10 | 0.60 | 0.57 | 98 | 1015.9 |
| 20260903091534 | 68 | 0 | 0.0 | 4.3 | 0.13 | 0.58 | 0.55 | 98 | 1015.7 |